Theta_e
309 308 308 307 306 306 306 306 306 305 304 302 301 300 299 298 298 297 295 294 293 293 292 292 292 292 292 292 292 293 293 293 292 292 290 289 288 288 287 287 286 286 286 286 286 286 286 285 286 286 286 285 285 284 284 284 284 283 282 281 280 278 278 279 278 281 285 286 284 285 284 283 285 283 281 283 282 278 278 278 278 279 280 281 281
309 309 308 307 306 306 305 305 305 304 303 302 301 300 299 298 297 296 295 294 293 292 292 292 292 292 292 292 292 292 292 292 292 291 290 289 288 287 287 287 286 286 286 286 286 285 285 286 286 286 285 285 284 284 284 283 283 283 282 281 280 279 278 278 277 277 281 285 284 285 284 282 284 284 281 281 280 277 275 277 278 278 279 279 279
309 308 307 307 306 305 304 303 304 303 302 301 300 299 298 297 296 296 295 294 293 292 292 291 291 291 292 292 292 292 292 292 292 291 290 289 288 287 287 286 286 286 286 286 286 285 286 286 286 285 285 285 284 283 283 283 283 282 282 281 280 279 278 276 276 275 276 281 283 284 285 282 281 282 279 278 278 276 274 276 277 277 277 277 278
309 307 307 306 305 304 303 303 303 302 302 301 299 298 296 295 294 294 294 293 292 291 291 291 291 291 291 292 292 292 292 292 291 290 289 288 287 287 287 286 286 286 286 286 285 286 286 285 285 285 284 284 283 283 282 282 282 282 281 281 280 279 277 275 275 275 274 276 280 281 282 281 278 278 276 276 277 276 275 275 275 276 277 276 277
309 308 307 306 305 304 303 302 302 302 301 300 298 297 295 294 293 293 293 292 292 291 291 291 291 291 291 291 292 292 292 291 291 290 289 288 287 287 286 286 286 286 286 285 285 286 285 285 285 284 284 283 283 282 282 282 282 281 281 280 279 277 276 274 274 275 274 274 277 278 278 277 277 276 275 275 276 275 275 276 275 275 276 276 276
309 308 307 306 305 304 302 302 301 301 301 299 298 296 295 294 293 292 292 292 291 291 291 291 291 291 291 291 291 291 291 291 290 289 288 287 287 286 286 286 286 285 285 285 285 285 285 285 284 284 283 283 282 282 282 282 282 281 280 279 278 275 275 275 275 275 275 275 275 276 276 275 276 276 275 275 276 275 275 276 276 275 275 276 276
308 307 306 305 304 303 303 302 301 300 299 298 297 295 294 294 292 292 291 291 291 290 290 290 290 290 291 291 291 291 291 290 289 288 287 287 287 286 286 285 285 285 285 285 285 285 285 284 284 283 282 282 282 282 282 282 280 279 278 277 276 275 275 276 275 275 275 275 275 275 276 275 275 275 276 275 275 276 275 275 276 276 276 276 276
308 306 305 304 304 303 302 302 300 299 298 297 296 295 294 293 292 291 291 291 291 290 290 290 290 290 290 291 291 291 290 290 288 287 287 286 286 286 286 285 285 285 285 285 285 284 284 284 283 283 282 282 282 282 281 280 278 277 276 276 275 276 275 275 276 276 276 276 276 276 276 276 276 275 276 276 275 275 276 276 276 276 276 276 276
307 306 304 304 303 302 301 300 299 298 297 296 296 295 294 293 292 291 291 291 290 290 290 290 290 290 290 290 290 290 290 289 288 287 286 286 286 286 285 285 285 285 285 285 285 284 284 283 283 282 282 282 282 281 279 277 276 275 275 276 276 276 276 276 276 276 276 276 276 276 276 276 276 276 276 276 276 276 276 276 276 276 276 276 276
306 305 304 304 303 301 300 300 299 297 296 296 296 295 294 293 291 291 290 290 290 289 289 289 289 290 290 290 290 289 289 288 287 286 286 286 286 285 285 285 285 285 285 284 284 284 284 283 282 281 281 281 281 279 277 275 275 275 276 276 276 276 276 276 277 277 277 277 277 277 277 277 277 277 276 276 276 276 276 276 276 276 276 276 276
306 305 305 304 302 301 300 299 298 297 296 295 295 294 293 292 291 290 290 290 290 289 289 289 289 289 290 289 289 289 288 287 286 286 286 286 286 285 285 285 285 285 284 284 284 284 283 282 281 281 281 281 280 278 276 275 275 275 276 276 276 277 277 277 277 277 277 277 277 277 277 277 277 277 277 277 277 276 276 277 277 277 277 277 277
306 305 304 303 301 301 300 299 298 296 295 295 294 293 293 291 290 290 290 290 289 289 288 288 289 289 289 289 289 288 287 286 286 286 286 286 285 285 285 285 285 285 284 284 283 283 282 281 280 280 280 280 280 278 276 275 275 275 276 276 276 277 277 277 277 277 277 278 278 278 277 277 277 277 277 277 277 277 276 276 276 276 277 277 277
306 305 304 302 301 301 300 299 297 296 296 295 294 293 292 291 290 290 290 290 289 289 288 288 289 289 289 288 288 287 286 286 286 286 285 285 285 285 285 285 285 285 284 283 282 282 281 280 280 280 280 280 279 277 276 275 275 275 276 276 276 277 277 277 277 277 277 277 277 277 277 277 277 276 276 276 276 276 276 276 276 276 276 277 277
306 305 304 302 302 300 299 298 297 296 296 295 294 293 292 291 290 290 290 290 289 289 288 288 288 288 288 288 287 287 286 286 286 286 285 285 285 285 285 285 285 284 283 282 282 281 280 279 280 280 280 280 278 276 275 275 276 276 276 276 276 276 276 276 277 277 277 276 276 276 276 276 276 276 276 276 276 277 276 276 276 276 276 277 277
306 305 303 302 301 300 299 298 297 296 295 295 294 293 292 291 290 290 289 290 289 289 288 288 288 288 288 287 287 286 286 286 286 286 285 285 285 285 285 285 284 283 282 281 280 280 279 279 280 280 280 278 276 275 275 276 276 276 276 276 276 276 276 276 276 276 276 276 276 276 276 276 277 277 277 277 277 277 277 277 277 277 277 277 278
305 304 304 303 302 301 300 299 298 297 295 295 293 292 292 291 290 290 289 289 289 288 288 288 288 288 287 287 286 286 286 286 286 286 286 286 285 285 285 284 283 282 281 280 280 279 279 280 280 279 278 276 275 275 275 276 276 276 276 276 276 276 276 276 276 276 276 276 276 276 276 276 277 277 277 277 278 278 278 278 278 278 278 278 278
306 305 305 304 303 302 301 299 298 297 296 295 293 292 291 291 290 290 289 289 288 288 288 288 288 287 287 287 286 286 286 286 286 286 286 285 285 285 284 283 282 281 280 280 279 279 280 280 279 278 276 275 275 275 275 275 276 276 276 276 276 275 275 275 275 275 275 275 275 275 276 276 276 277 277 277 278 278 278 278 278 279 279 279 279
307 306 306 306 304 303 301 300 298 297 296 295 294 292 291 290 290 290 289 289 288 287 287 287 287 287 287 286 286 286 286 286 287 286 286 285 284 283 283 282 281 280 280 279 279 279 280 280 278 276 275 275 276 275 275 275 276 276 276 275 274 274 275 275 274 274 274 274 274 275 275 275 275 275 275 276 276 277 277 278 278 278 278 278 278
309 308 308 306 304 302 301 299 298 297 296 295 294 292 292 291 290 289 289 288 288 287 287 287 287 287 286 286 286 286 287 287 287 286 285 284 283 282 282 281 280 280 279 279 279 279 279 279 278 276 276 276 276 275 275 276 276 275 275 274 274 274 275 274 274 274 274 274 274 274 273 274 274 274 274 275 275 276 276 277 277 277 277 277 278
309 308 307 306 304 302 301 299 298 298 296 295 293 292 291 290 289 289 288 287 287 287 287 287 286 286 286 286 286 287 287 287 286 286 285 283 282 281 281 280 280 280 279 279 279 278 278 278 278 277 277 276 275 274 274 275 275 274 274 274 274 274 274 274 274 274 273 273 273 273 274 274 275 274 274 274 275 275 276 276 277 278 278 278 278
308 307 306 305 304 302 301 300 298 297 295 294 292 291 290 289 289 288 288 287 286 286 287 286 286 286 286 286 287 287 287 286 286 285 284 282 281 280 280 279 279 279 279 278 277 277 277 278 277 277 277 275 274 274 274 275 274 274 274 274 273 274 273 273 273 273 273 273 274 274 275 275 275 273 272 273 274 275 276 277 277 278 278 278 278
306 305 305 304 303 302 301 299 297 295 293 292 291 290 289 289 288 288 287 286 286 286 286 286 285 285 286 286 287 287 286 286 285 284 282 281 280 279 279 279 279 278 278 277 277 277 277 277 277 277 275 274 274 274 274 274 274 274 274 274 273 273 273 273 273 274 274 274 274 274 274 273 272 271 271 272 273 274 276 277 277 278 278 279 279
304 303 303 303 302 301 299 298 296 294 293 291 290 290 289 288 288 287 286 286 286 285 285 285 285 285 286 286 287 286 286 285 284 283 281 281 280 279 278 278 278 278 277 277 277 277 277 277 276 275 274 274 274 274 274 274 274 274 274 274 273 273 273 273 274 274 274 274 273 272 271 271 270 271 271 272 272 273 274 274 275 276 277 278 278
302 301 301 301 301 299 298 296 295 293 291 290 289 289 289 288 287 286 285 285 285 285 285 284 285 285 286 286 286 286 285 284 282 282 281 280 279 279 278 278 278 277 277 277 278 277 277 276 275 274 274 274 274 274 274 274 274 274 274 273 273 273 273 274 274 273 272 271 270 270 270 270 270 271 271 271 272 272 272 272 273 274 275 276 277
300 300 301 301 300 298 297 295 293 292 291 290 289 289 288 288 287 286 285 285 285 285 284 284 285 286 286 286 286 285 284 283 282 281 280 279 279 278 278 278 278 278 277 278 278 277 276 275 274 274 274 274 274 274 274 274 274 274 274 273 274 274 273 273 272 271 270 269 269 269 270 270 270 270 271 271 271 271 271 272 272 272 273 274 275
300 299 300 299 298 297 296 294 293 291 290 289 288 288 288 288 287 286 285 284 284 284 285 285 286 286 286 286 285 284 283 282 281 280 280 279 279 278 279 279 278 278 278 278 277 277 276 275 274 274 274 273 273 274 273 273 274 274 274 274 274 274 273 272 271 270 269 269 269 269 269 270 270 270 271 271 271 271 271 271 271 272 272 272 274
301 300 299 298 297 296 295 294 293 291 290 288 287 287 287 287 286 286 285 284 284 284 284 286 286 286 285 284 283 283 282 281 280 279 279 279 278 279 279 279 278 278 277 277 277 276 275 274 273 273 273 273 273 273 273 273 274 273 274 274 274 273 273 272 270 270 269 269 269 269 269 270 270 270 271 271 271 271 271 271 271 271 271 272 272
301 301 300 298 297 295 294 293 292 291 290 288 287 286 287 286 286 286 285 285 285 284 285 286 287 286 286 284 283 282 280 280 279 279 279 278 279 279 279 279 278 277 276 276 276 275 274 273 273 273 273 274 274 274 274 274 274 273 273 273 273 273 272 272 271 270 270 269 269 269 270 270 270 271 271 271 271 271 271 271 271 271 271 271 272
300 300 300 299 297 296 294 292 291 290 289 287 286 285 286 286 286 285 285 285 285 285 286 287 287 287 286 285 284 282 281 280 279 278 278 278 278 279 279 278 277 276 276 275 274 274 273 273 273 273 274 274 275 275 274 274 273 273 273 273 273 273 272 271 271 270 270 269 269 269 270 270 270 271 271 271 271 271 271 271 270 270 270 271 271
299 299 298 298 297 296 294 292 291 289 288 287 285 283 283 284 284 284 284 284 285 286 287 287 288 287 285 284 282 281 281 280 278 277 277 278 278 278 277 276 275 275 275 274 273 273 273 273 273 274 274 274 274 274 274 273 273 272 272 273 273 272 272 271 270 270 270 269 269 269 270 270 270 271 271 271 271 271 270 270 270 270 270 270 270
299 298 297 296 296 294 293 291 290 288 286 285 284 283 282 281 281 282 283 284 285 285 285 285 285 284 283 282 280 279 278 278 277 277 277 277 277 276 276 275 274 274 274 273 273 273 273 273 273 274 274 274 274 273 272 272 272 272 272 272 272 272 272 271 270 270 269 269 269 269 270 270 270 271 271 271 270 270 270 270 270 269 270 270 270
297 297 296 296 294 292 290 289 288 286 284 283 282 282 281 280 280 280 282 283 283 283 281 280 280 280 280 280 280 278 277 277 276 277 277 277 276 275 275 274 274 274 274 273 272 272 272 273 273 273 273 273 273 272 272 271 271 271 271 272 272 272 271 271 270 269 269 269 269 269 270 270 271 271 271 270 270 270 270 270 269 269 269 269 270
297 296 295 294 293 291 289 287 285 284 282 281 280 280 280 280 280 279 279 279 279 278 277 277 278 278 278 278 278 278 277 276 276 276 276 276 275 274 274 274 274 274 273 272 272 272 272 273 273 273 273 272 272 272 271 271 271 271 271 271 271 272 271 270 270 269 269 269 269 269 270 270 271 271 270 270 270 270 270 269 269 269 269 269 269
295 295 294 293 292 291 289 286 284 283 281 280 280 279 279 279 280 279 277 276 275 275 275 276 276 277 277 277 276 276 276 276 276 276 276 275 274 274 274 274 274 273 272 272 272 272 273 273 273 272 272 272 271 271 271 270 270 271 271 271 271 271 271 270 269 269 269 269 269 270 270 270 271 271 270 270 270 270 269 269 269 269 269 269 269
294 293 292 291 290 289 288 286 284 283 281 280 279 278 278 278 279 279 277 276 275 275 275 275 275 276 276 275 275 274 274 274 275 275 275 274 274 273 273 273 273 272 272 271 272 272 273 273 272 272 272 271 271 270 270 270 270 270 271 271 271 271 270 270 269 269 269 269 269 270 270 270 271 270 270 270 270 269 269 269 269 269 269 269 269
292 292 291 290 289 288 287 286 284 282 281 279 278 277 277 278 278 278 277 277 277 277 276 275 274 274 274 274 273 273 273 273 274 274 274 274 273 273 273 273 272 271 271 272 272 272 272 272 272 272 271 271 270 270 270 270 270 270 270 271 271 271 270 269 269 269 269 269 270 270 270 270 270 270 270 269 269 269 269 269 269 269 269 269 269
292 292 291 290 289 287 285 284 283 281 279 278 277 276 276 277 277 277 277 277 277 277 276 275 274 274 274 273 272 272 272 273 274 274 274 273 273 273 273 272 272 272 272 272 272 272 272 272 272 271 271 271 271 271 271 271 270 270 270 270 271 271 270 269 269 269 269 269 270 270 270 270 270 270 269 269 269 269 269 269 269 269 269 269 269
291 291 290 289 287 285 283 282 280 279 277 276 276 276 276 276 276 277 277 277 278 278 276 276 275 275 274 273 273 272 273 274 274 274 273 273 272 272 272 272 272 272 272 272 272 272 272 272 272 271 271 271 271 271 271 271 270 270 270 270 271 271 270 269 269 269 269 269 270 270 270 270 270 270 269 269 269 269 269 269 269 268 268 268 269
289 288 288 287 285 283 281 280 278 277 276 275 275 275 275 276 276 277 278 278 278 278 277 277 276 275 275 274 274 274 274 274 274 273 273 272 272 272 272 272 272 272 272 272 272 272 272 272 271 271 271 271 271 271 271 271 270 270 270 270 271 271 270 269 268 269 269 269 270 270 270 270 270 269 269 269 269 269 269 269 268 268 268 268 268
288 287 286 284 282 281 279 278 277 276 274 274 274 274 275 276 277 278 279 279 279 278 278 277 276 275 274 274 274 274 274 273 273 273 273 272 272 272 272 272 272 272 272 272 272 272 271 271 271 271 271 271 271 271 271 271 270 270 270 270 271 271 270 269 268 269 269 269 270 270 270 270 270 269 269 269 269 269 269 268 268 268 268 268 268
287 286 284 282 280 278 277 276 276 275 274 274 274 274 275 277 278 279 280 280 279 278 277 276 276 275 274 273 273 273 273 273 273 272 272 272 272 272 272 271 271 271 271 272 272 271 271 271 271 271 271 271 271 271 271 270 270 270 270 270 270 270 269 268 268 269 269 270 270 270 270 270 269 269 269 269 269 269 268 268 268 268 268 268 268
285 284 282 279 277 277 276 275 274 274 273 273 274 275 277 279 280 280 280 279 278 278 277 275 275 274 273 272 272 272 272 272 272 272 271 271 271 271 271 271 271 271 271 271 271 271 271 271 271 271 271 271 271 271 271 270 270 270 270 270 270 270 269 268 268 269 269 270 270 270 270 269 269 269 269 269 269 268 268 268 268 268 268 268 268
283 282 280 278 276 275 275 274 273 273 273 274 275 277 279 280 280 280 279 278 278 277 276 275 273 272 272 272 272 272 272 272 272 271 271 271 272 271 271 271 271 271 271 271 271 271 271 271 270 270 270 270 271 270 270 270 270 270 270 270 270 270 269 268 268 269 269 270 270 270 270 269 269 269 269 269 268 268 268 268 268 268 268 268 268
280 278 277 276 274 274 273 273 273 273 273 275 278 279 280 280 279 279 278 278 277 276 275 274 273 272 272 272 272 272 272 272 271 271 272 272 272 271 271 271 271 271 271 271 270 270 270 270 270 270 270 270 270 270 270 270 270 270 270 270 270 269 269 268 268 269 269 270 270 270 269 269 269 269 269 269 268 268 268 268 268 268 268 268 268
277 276 275 274 273 272 272 272 272 273 275 277 279 279 278 278 278 278 277 277 276 275 274 273 273 273 273 273 272 272 272 271 271 272 272 272 271 271 271 271 270 270 270 270 270 270 270 270 270 270 270 270 270 270 270 270 270 270 270 270 270 269 268 268 268 269 269 270 270 270 269 269 269 268 269 269 268 268 268 268 268 268 268 268 267
275 275 274 273 272 271 271 272 273 275 276 278 278 278 277 277 277 277 276 275 275 274 273 273 272 272 272 272 272 271 271 271 272 272 272 271 271 271 270 270 270 270 270 270 270 270 270 270 270 270 270 270 270 271 271 271 271 270 270 270 270 269 269 268 268 269 269 270 270 269 269 269 268 268 269 269 268 268 268 268 268 268 267 267 267
274 273 273 272 272 271 272 273 274 276 277 277 277 277 276 276 276 275 275 274 274 273 272 272 271 271 271 271 271 271 271 272 272 272 272 271 271 271 270 270 270 270 270 270 270 270 270 270 270 270 270 270 270 271 271 271 271 270 270 270 270 270 269 268 268 269 269 269 269 269 269 269 268 268 269 269 268 268 268 268 268 267 267 267 267
273 272 272 272 272 272 273 274 275 275 276 276 276 276 275 275 275 274 274 273 272 272 271 271 271 271 271 271 271 271 271 272 272 272 271 271 271 271 270 270 270 270 270 270 270 270 270 270 270 270 270 270 271 271 271 271 271 271 270 270 270 270 269 268 268 269 269 269 269 269 269 269 268 268 269 269 268 268 268 268 267 267 267 267 268
272 272 272 272 273 273 274 275 275 275 276 276 276 275 275 274 274 273 273 272 271 271 271 271 271 271 271 271 271 271 272 272 272 271 271 271 271 270 270 270 270 270 270 270 270 270 270 270 270 270 270 270 270 271 271 271 271 271 270 270 270 270 269 268 268 269 269 269 269 269 269 269 268 268 269 269 269 268 268 268 267 267 267 267 267
271 272 272 272 273 273 274 275 275 275 275 276 275 275 274 274 273 272 272 271 271 271 270 271 271 271 271 271 271 271 271 271 271 271 271 271 270 270 270 270 270 270 270 270 270 270 270 270 269 269 270 270 271 271 271 271 271 270 270 270 271 270 269 268 268 269 269 269 269 269 269 269 268 268 269 269 269 268 268 268 267 267 267 267 267
271 271 272 272 272 273 274 274 275 275 275 275 275 275 274 273 272 271 271 271 270 270 270 270 270 270 271 271 271 271 271 271 271 271 270 270 270 270 270 270 270 270 270 270 270 270 270 270 269 270 270 270 271 271 271 270 270 270 270 270 271 270 268 268 268 269 269 269 269 269 269 269 269 268 269 269 270 269 268 268 267 267 267 267 267
Wind_Speed
47 47 47 48 48 47 47 47 46 47 47 47 47 47 47 46 44 44 45 44 44 42 40 38 36 34 32 30 28 27 25 24 24 25 24 24 24 23 23 21 20 19 17 17 17 18 19 20 21 23 25 27 27 26 26 27 28 30 29 30 30 30 31 33 41 56 65 63 61 64 60 60 63 59 56 58 55 48 48 49 48 49 51 51 51
49 50 50 51 50 49 49 49 49 50 50 49 49 49 48 48 47 46 45 45 44 42 41 39 37 35 33 31 29 27 26 25 25 25 25 25 24 23 22 21 20 19 18 17 17 18 20 21 23 24 26 27 27 27 28 28 30 32 31 30 30 30 31 34 39 49 60 64 61 62 60 57 60 59 54 56 57 50 49 52 50 48 48 47 47
53 54 53 53 52 52 52 52 51 52 52 52 51 51 51 50 49 47 45 45 44 42 41 39 37 36 34 32 30 28 27 26 26 26 26 25 25 23 22 21 20 19 18 18 18 19 21 23 24 25 27 28 28 28 29 31 32 33 32 30 29 29 27 28 33 39 49 59 60 59 60 57 58 59 54 54 58 55 51 52 51 48 47 46 47
55 56 56 56 55 54 55 54 54 54 54 53 53 53 52 52 51 49 46 45 44 43 41 39 38 36 34 33 31 29 28 28 27 27 26 25 24 23 22 21 20 20 19 18 19 20 22 24 25 26 28 29 29 30 31 33 34 33 32 30 28 28 26 24 27 33 40 52 57 57 58 59 58 58 56 54 57 58 54 52 52 51 49 47 47
53 55 57 57 57 57 56 56 56 56 55 54 54 53 53 52 51 49 48 46 44 43 42 41 39 38 36 34 32 31 29 29 28 28 26 25 24 22 21 20 20 19 19 19 19 21 23 24 26 27 28 30 30 32 33 33 33 31 30 29 27 26 27 27 29 34 39 48 55 56 56 59 59 56 54 54 56 58 58 58 55 52 52 51 49
48 51 55 57 59 59 58 58 58 57 55 55 54 54 53 53 51 50 48 46 45 44 43 42 40 38 37 35 33 31 30 29 29 27 26 25 23 22 21 20 20 19 19 19 20 22 24 25 27 27 28 30 32 33 34 33 31 30 28 28 27 28 30 32 33 36 40 47 53 56 56 59 62 58 53 52 54 56 58 61 60 55 51 50 49
45 48 52 55 58 59 59 58 57 56 55 55 54 54 53 52 51 50 48 46 44 44 43 42 40 39 37 35 34 32 31 30 29 27 26 25 23 22 21 20 19 19 19 20 21 23 25 26 27 28 28 31 33 33 33 32 30 29 29 29 29 31 33 35 37 39 42 46 52 57 57 57 60 61 57 52 52 53 53 55 61 61 54 50 53
45 47 49 51 54 57 58 57 56 55 55 55 54 53 52 52 51 49 47 45 44 43 43 42 41 39 38 36 34 32 31 30 28 26 25 24 23 22 20 19 20 20 20 21 22 24 26 27 27 28 29 31 32 32 31 30 29 30 30 30 32 33 35 36 39 41 45 48 51 56 58 57 58 61 60 53 50 53 53 50 55 63 61 59 59
46 46 47 47 49 52 54 54 54 55 55 54 53 52 52 51 50 48 46 44 43 43 43 42 41 40 39 37 35 33 31 29 27 26 25 23 22 21 20 20 20 21 21 22 23 25 26 28 28 29 30 31 31 30 27 25 26 29 31 31 32 34 36 38 40 42 45 49 51 54 56 57 58 58 59 57 52 54 55 53 55 60 62 63 63
46 45 45 44 45 48 51 52 53 54 54 53 52 52 51 50 49 47 45 43 43 44 44 43 42 41 39 37 34 32 30 28 27 25 23 22 22 20 20 20 21 21 22 22 24 26 27 28 29 30 31 31 29 26 24 22 24 27 29 29 31 33 37 39 41 42 44 47 51 53 53 57 60 58 55 55 51 49 50 49 50 54 55 60 64
45 44 43 42 44 46 48 50 52 52 53 52 51 51 50 50 48 46 44 44 44 45 45 44 43 41 39 36 33 31 29 27 25 23 22 22 21 19 20 21 21 22 23 23 25 26 28 29 30 30 30 29 28 26 24 24 25 26 28 29 29 31 34 38 41 42 44 47 50 52 53 56 60 59 55 50 47 47 47 45 45 49 51 55 59
44 43 42 42 43 45 46 48 50 50 51 51 51 50 49 49 48 46 45 45 46 46 45 44 43 41 38 35 33 30 28 25 23 22 21 20 20 20 20 21 22 23 24 24 25 27 29 29 29 29 29 27 26 25 25 25 25 26 28 29 29 30 32 35 40 42 44 48 51 54 55 56 57 60 57 50 47 47 48 47 46 48 51 51 52
43 42 41 42 43 43 45 46 47 48 49 49 49 49 49 49 48 46 45 45 46 47 46 45 43 40 38 34 31 28 26 24 22 20 20 19 19 20 21 21 23 24 24 24 25 27 29 29 29 28 27 26 24 25 26 28 29 29 30 31 33 33 33 34 36 39 42 46 51 56 58 56 57 60 57 51 50 51 50 52 51 50 53 54 54
41 41 41 41 42 42 43 44 45 46 47 48 49 49 49 49 47 46 45 46 47 48 47 45 43 40 37 33 30 27 25 23 22 20 19 19 19 20 21 22 24 25 24 24 25 27 28 28 28 28 26 24 24 25 27 29 31 33 34 36 37 37 37 36 37 39 41 44 50 55 57 55 56 59 58 54 55 56 55 58 58 55 57 58 59
40 41 41 40 40 41 42 43 44 45 47 48 49 49 49 48 47 46 46 46 48 48 48 46 44 40 36 32 29 27 25 24 22 21 20 19 20 21 22 23 24 24 24 24 25 26 27 26 26 25 24 24 25 25 26 28 31 34 35 36 38 39 40 40 39 39 41 43 46 50 52 53 53 56 57 54 55 57 56 57 59 57 57 59 61
39 40 40 39 40 40 41 43 44 45 47 48 49 49 49 48 48 46 46 47 49 49 49 47 44 40 35 32 29 27 25 24 22 21 20 20 21 22 23 24 24 23 23 24 24 25 25 24 23 23 22 24 24 24 25 27 30 33 35 38 40 41 43 42 38 37 37 39 42 45 47 49 50 52 52 51 52 54 54 55 56 53 51 56 61
38 39 38 38 39 40 41 43 45 46 48 49 49 50 49 48 48 47 47 49 51 52 50 46 43 39 34 31 29 27 25 23 21 20 20 21 21 22 23 23 22 22 23 23 24 24 24 22 21 21 21 23 25 23 23 26 29 33 37 41 42 43 45 44 40 37 37 37 39 40 42 44 45 48 49 49 49 49 49 54 56 50 47 52 56
37 37 37 37 39 40 41 43 44 46 48 48 49 49 49 48 48 47 48 50 52 52 49 45 41 37 34 31 28 26 25 23 21 21 21 21 22 23 22 21 21 22 23 23 23 23 22 19 18 19 21 24 24 23 22 24 29 34 37 40 42 44 45 44 42 42 41 40 39 40 42 45 46 49 50 49 47 45 46 52 54 51 51 55 56
34 35 35 37 39 40 41 43 44 45 46 47 48 48 48 48 48 47 49 51 52 50 48 44 41 37 34 31 28 26 25 23 22 22 21 22 23 23 22 21 21 22 22 22 22 21 20 19 18 19 21 23 21 21 22 25 29 32 34 37 41 44 43 42 42 43 44 45 47 48 49 49 49 50 51 49 45 42 42 46 48 49 53 57 58
34 35 36 37 38 39 40 42 44 45 46 47 47 47 47 47 47 48 50 52 52 50 48 44 41 37 34 32 29 27 25 24 22 22 22 22 22 22 21 20 21 21 21 21 20 19 19 19 19 20 21 20 19 21 24 25 27 29 31 34 38 40 39 40 41 43 45 48 50 49 49 49 48 48 47 45 42 40 38 39 42 45 49 53 55
35 36 37 38 38 39 40 42 44 45 46 46 46 46 46 46 47 48 51 53 52 50 47 44 40 37 35 32 29 27 25 24 23 22 22 22 21 21 21 20 20 20 19 18 18 19 19 19 20 20 19 19 20 22 25 25 26 28 31 32 33 34 35 38 42 43 44 45 46 46 46 46 47 46 43 40 38 38 37 37 39 41 44 48 51
36 37 37 37 38 39 40 42 44 46 46 46 45 45 45 46 46 48 51 53 52 49 46 43 40 37 35 32 29 27 26 25 24 23 22 22 21 20 20 20 19 17 17 18 18 18 18 19 20 19 18 19 22 23 25 25 26 28 29 29 29 30 32 36 39 40 41 42 43 45 45 45 45 44 41 39 37 35 35 36 36 38 42 45 48
35 37 36 36 38 40 41 43 44 46 47 46 46 45 45 46 47 50 53 54 52 48 45 42 40 38 35 32 30 27 26 25 24 23 22 21 20 19 19 19 17 16 17 18 18 17 17 18 19 18 18 20 22 23 24 25 26 27 27 27 27 29 31 33 35 37 39 40 41 43 44 44 43 42 39 38 37 36 36 38 38 38 40 43 45
34 35 35 36 38 39 41 43 44 46 47 47 46 46 45 46 49 52 54 53 51 48 45 42 40 38 34 32 30 28 26 25 24 23 22 21 19 18 19 19 17 16 16 17 16 16 16 16 16 17 19 21 22 22 23 24 24 25 25 26 27 28 30 32 33 34 36 38 40 42 43 42 40 38 38 38 39 40 42 43 42 42 42 44 46
32 33 35 37 38 39 41 43 44 45 47 47 48 48 47 48 51 54 54 53 51 48 45 42 39 37 34 32 30 28 27 25 24 23 22 20 19 19 19 19 17 15 15 15 15 15 15 14 15 17 19 20 21 21 21 21 22 22 23 25 27 28 29 30 31 33 35 37 39 41 42 40 38 37 38 40 41 42 45 46 46 46 45 44 45
31 32 35 37 38 40 41 43 44 45 47 48 48 48 48 49 52 55 55 53 51 48 45 42 39 36 34 33 31 28 27 26 25 24 22 20 19 19 19 17 15 14 14 14 14 13 13 13 15 17 19 19 20 20 20 20 20 21 22 24 26 28 28 29 31 32 34 37 38 40 41 41 40 40 41 43 44 44 45 47 48 48 46 44 44
31 33 35 37 39 40 42 44 45 46 47 49 51 51 49 50 53 56 58 56 52 48 45 42 38 36 35 32 30 28 27 27 26 24 22 21 20 20 18 16 13 11 12 13 12 11 12 13 15 17 18 19 19 19 20 21 21 22 23 25 26 27 27 28 29 31 33 36 38 40 42 42 42 43 44 45 47 46 45 46 48 48 45 43 43
32 33 35 37 40 41 43 45 46 46 49 51 54 54 53 53 55 58 60 59 55 50 45 41 38 36 35 32 31 29 28 27 26 25 23 21 20 19 16 13 10 9 10 12 11 11 12 13 15 17 18 19 19 20 21 21 22 24 25 26 27 27 27 28 29 31 33 36 39 41 42 43 43 43 45 46 48 48 47 46 47 47 45 42 41
36 36 37 39 41 43 44 46 47 48 50 53 55 55 54 54 57 58 58 56 53 49 45 41 38 36 34 32 31 30 29 28 26 24 22 20 18 17 13 10 8 7 8 10 10 10 12 14 15 17 18 19 20 21 22 22 23 25 26 27 28 28 29 30 32 34 36 37 39 42 43 43 43 44 46 49 50 49 47 46 46 46 44 41 41
40 41 42 43 44 45 47 48 49 50 52 54 56 55 53 53 54 55 54 51 47 45 42 38 36 35 33 30 28 26 26 26 24 22 20 18 16 13 10 7 7 8 8 9 9 10 12 14 15 16 17 19 20 21 21 23 26 27 28 28 29 29 30 31 33 35 37 38 40 42 43 44 44 45 48 51 51 50 48 46 45 44 43 41 41
42 43 44 46 47 48 50 50 51 52 53 55 57 56 54 52 51 50 49 46 43 40 37 34 32 31 31 29 27 24 23 23 22 21 19 17 14 12 8 7 8 9 8 8 9 11 12 13 13 14 16 17 19 20 22 24 26 29 30 31 30 30 31 33 34 37 39 40 41 43 43 44 44 47 50 52 52 51 48 47 45 43 42 41 40
44 45 46 48 49 50 50 51 51 52 54 55 56 56 56 55 51 47 44 43 40 37 34 31 30 29 28 28 27 27 25 23 22 20 18 15 13 11 9 8 8 7 7 8 9 10 11 11 12 14 15 17 18 20 22 24 26 28 30 32 33 32 32 33 35 37 39 41 42 44 45 45 46 49 52 53 51 50 49 47 46 43 41 40 40
43 45 47 48 49 50 50 50 50 52 53 54 55 55 56 57 55 49 41 37 36 34 32 30 29 29 28 27 26 25 25 23 21 19 16 14 12 10 9 8 7 6 6 8 9 9 9 10 12 14 15 17 19 20 22 24 26 28 30 31 33 33 33 34 36 38 40 41 43 44 46 46 47 50 53 53 50 49 49 48 46 43 41 40 40
42 44 46 48 50 50 50 50 50 51 52 53 54 55 55 55 54 51 44 38 34 31 28 27 26 26 26 25 24 23 22 21 19 17 15 14 12 10 9 8 6 5 7 8 8 7 7 9 11 13 15 17 18 20 22 24 26 28 30 31 32 33 34 35 37 39 41 42 44 45 47 47 49 52 54 54 51 49 48 47 45 43 41 41 42
40 43 46 48 49 49 49 49 50 51 52 53 54 55 54 52 52 51 48 44 40 36 31 28 26 25 25 23 22 21 20 19 18 16 15 13 11 10 9 7 5 6 7 7 6 6 7 9 11 13 15 17 18 20 22 24 26 28 30 31 32 33 34 36 38 40 42 43 45 47 48 49 51 53 54 53 52 50 49 47 45 44 43 43 44
40 43 45 47 49 49 49 49 50 51 52 53 53 53 52 51 51 50 47 45 43 40 36 33 29 26 24 23 21 20 19 18 18 16 15 13 11 10 9 7 6 7 8 6 4 5 7 9 11 13 15 16 18 20 21 23 26 28 29 30 32 33 35 37 39 41 42 45 46 48 49 50 53 55 55 54 52 49 48 48 47 45 45 44 42
40 43 45 47 49 49 49 49 49 50 51 52 52 52 51 50 50 49 47 45 43 41 39 37 34 31 28 25 22 21 20 19 19 17 14 13 12 11 9 8 7 8 7 3 2 4 7 9 11 13 15 17 19 21 22 24 25 27 29 30 30 32 35 37 39 41 43 46 48 48 49 52 56 57 56 54 53 51 49 48 47 47 45 43 41
40 42 44 47 48 49 49 48 48 49 50 51 52 52 51 51 50 48 47 45 43 41 40 38 36 34 32 30 27 25 23 21 18 16 14 13 12 11 10 9 8 7 4 2 2 4 7 9 11 13 16 18 20 22 23 25 26 27 29 30 31 32 35 37 40 42 44 47 49 49 50 54 58 59 57 54 53 52 51 49 48 47 47 45 44
40 42 44 46 46 47 47 47 47 48 50 51 51 51 52 52 51 49 46 44 42 40 38 36 34 33 32 31 29 26 22 19 17 16 15 14 13 11 10 9 8 5 3 1 3 5 7 9 11 14 16 18 20 22 24 25 26 27 28 30 32 33 35 38 41 44 46 48 50 50 52 56 59 59 57 54 52 52 52 51 49 47 47 47 48
39 42 44 45 45 45 45 46 47 48 50 51 51 52 53 53 51 48 45 42 40 37 35 33 32 30 29 27 25 22 20 19 18 17 16 14 12 11 10 9 7 4 1 1 4 6 8 10 12 14 16 18 20 23 24 25 26 26 28 30 32 33 36 38 41 44 47 49 50 51 53 58 60 59 57 55 53 52 51 51 50 48 47 47 49
39 42 43 44 44 44 44 46 48 50 51 52 52 52 52 51 48 46 43 40 37 35 32 30 30 29 27 24 22 20 20 19 18 17 15 13 12 11 10 8 5 3 1 2 4 6 9 11 13 15 17 19 21 23 24 26 26 27 28 30 32 33 36 38 41 45 47 49 50 51 55 59 60 58 57 55 54 53 51 50 50 48 47 49 50
41 42 42 42 43 44 46 48 49 50 51 52 53 53 51 48 46 43 40 38 36 34 32 31 30 28 26 25 23 22 21 19 18 16 15 13 13 11 9 6 4 2 1 3 5 7 10 12 14 16 18 20 21 23 25 27 28 28 29 31 32 34 36 39 42 45 48 49 50 52 56 59 59 57 56 55 54 54 53 51 50 49 48 50 51
40 40 41 41 43 45 47 49 50 51 52 53 52 51 49 46 44 41 39 38 36 34 34 33 31 29 28 27 25 24 22 20 18 17 16 15 13 10 8 5 3 1 2 5 7 9 11 12 14 16 18 20 21 23 25 26 28 29 30 31 32 33 35 39 42 45 48 49 50 53 57 59 59 57 57 55 54 54 53 51 51 50 49 50 51
38 38 39 40 42 44 46 48 50 51 51 52 51 49 47 45 43 41 39 37 36 34 34 33 32 31 30 28 26 24 22 21 20 19 17 15 12 9 7 5 3 2 4 6 8 10 12 13 14 15 17 18 20 22 23 25 27 28 29 31 31 32 34 38 42 45 47 48 50 54 57 58 58 57 57 56 55 54 53 52 52 51 51 52 54
36 37 38 40 42 44 45 47 48 50 51 51 50 48 46 43 41 40 38 37 36 34 33 32 31 30 28 26 25 24 23 22 21 19 16 13 11 8 6 5 3 2 4 6 8 10 12 13 14 16 17 18 20 21 22 24 25 26 27 29 29 31 33 37 40 44 45 46 49 53 55 56 57 57 57 56 55 54 53 53 51 51 52 54 55
35 37 39 41 43 44 45 47 49 50 51 51 49 47 44 42 39 38 36 34 34 32 31 30 29 28 26 26 25 24 23 22 20 18 15 12 10 8 6 4 3 3 4 6 8 10 12 14 15 17 18 19 20 22 23 24 25 26 26 27 28 29 32 36 39 41 43 44 47 51 53 54 56 56 56 56 55 54 53 53 51 51 51 52 54
34 37 39 42 44 45 47 48 50 51 50 49 47 45 42 39 37 35 33 32 31 31 30 30 29 28 27 26 25 24 23 21 19 16 14 12 9 7 6 4 3 4 5 6 8 10 12 14 16 17 19 20 21 22 24 25 26 26 27 27 28 28 31 35 37 39 41 43 46 48 50 52 54 56 56 56 55 54 54 53 52 52 52 52 53
35 38 40 42 44 47 48 50 50 50 49 47 44 42 39 37 35 33 32 31 31 30 30 29 29 28 27 26 25 24 23 21 18 16 14 11 9 7 5 4 3 4 5 7 8 10 12 14 16 17 19 20 22 23 24 25 26 27 28 28 28 28 31 33 35 37 39 41 44 46 49 51 53 55 55 55 54 54 54 53 53 53 53 53 53
35 38 40 43 45 48 49 50 50 48 46 44 41 39 37 35 33 32 31 31 30 30 29 29 29 28 27 26 25 24 22 20 18 16 13 11 9 7 5 4 4 5 6 7 9 10 12 14 16 17 19 20 22 23 25 25 27 28 28 29 29 29 31 32 34 36 38 40 42 45 48 51 53 54 54 54 54 54 53 53 54 54 53 52 53
36 38 41 44 46 48 48 48 46 44 41 39 38 36 35 33 32 31 30 30 30 29 29 28 27 27 26 25 24 23 21 19 17 15 12 10 8 6 5 5 5 6 7 8 9 11 13 15 16 18 19 20 22 23 24 25 26 28 28 29 29 30 31 32 33 35 36 38 41 45 48 51 53 54 54 55 55 54 54 54 54 53 52 52 52
37 40 42 44 46 46 45 43 41 39 37 35 34 33 33 32 31 30 29 28 28 28 27 26 26 25 24 24 22 21 20 18 15 13 12 10 8 6 5 5 6 7 8 9 11 12 14 16 17 19 20 21 21 23 23 24 25 27 28 29 29 29 30 31 33 34 35 37 41 44 48 51 52 53 54 55 55 54 54 54 54 53 52 51 51
Wind_Direction
230 232 233 233 234 234 235 237 238 239 239 239 240 240 241 241 241 241 239 238 237 236 235 235 235 236 237 239 241 244 247 251 257 261 264 267 271 274 276 278 280 282 284 287 292 295 299 303 306 307 307 305 305 305 304 303 299 295 290 284 278 271 268 266 266 279 293 296 294 296 298 300 300 300 301 301 302 304 303 300 300 299 298 298 296
233 234 233 234 235 235 236 237 238 240 240 239 239 239 239 239 239 239 237 236 236 235 234 234 234 234 235 237 240 242 246 250 255 259 262 265 269 272 274 276 278 280 282 286 290 294 299 303 305 305 304 302 303 304 303 302 298 295 291 286 282 276 269 268 267 272 285 293 295 296 299 300 299 300 304 304 304 305 303 302 304 302 300 298 296
237 236 235 236 236 236 237 237 238 240 240 240 240 239 239 238 237 237 236 235 234 233 233 233 233 234 234 236 238 240 244 249 253 257 259 262 266 269 272 274 276 278 281 286 290 296 300 303 304 303 301 300 301 303 302 300 297 293 291 288 285 283 278 273 272 272 281 291 295 297 300 302 302 303 305 306 307 306 304 304 305 303 300 298 296
240 238 238 238 238 237 238 238 239 239 240 240 240 239 238 237 235 235 234 233 232 231 231 231 231 232 233 235 237 239 242 247 251 254 257 260 264 267 269 271 273 276 281 287 293 298 300 301 301 301 300 300 301 303 301 298 296 293 291 291 289 291 292 287 283 283 286 291 296 299 301 302 303 304 305 307 308 306 305 305 304 303 301 298 296
245 243 241 240 240 239 239 239 239 240 240 240 240 239 238 237 235 234 233 232 230 229 229 229 230 231 232 234 235 237 241 246 250 253 256 259 262 265 266 268 271 276 282 289 294 297 298 299 299 299 299 300 301 301 300 297 295 293 292 294 297 300 302 299 294 291 290 291 296 300 302 302 303 304 303 305 308 305 304 305 303 301 300 299 298
252 249 245 242 241 240 239 239 239 239 239 240 240 239 238 236 235 234 233 231 229 228 228 229 229 230 231 232 234 236 241 246 250 253 255 259 262 263 264 266 271 277 283 290 294 296 297 297 298 297 298 300 301 301 299 296 295 296 297 301 306 308 305 302 299 295 290 290 294 297 300 300 301 303 302 301 303 303 302 304 303 300 299 298 298
254 252 248 244 242 240 240 240 240 240 239 239 239 238 238 237 235 234 233 231 229 228 228 227 228 229 229 230 232 236 240 245 248 251 254 258 260 261 264 267 273 280 285 291 294 296 296 296 296 297 299 301 301 300 298 297 299 303 306 309 309 307 304 301 299 294 290 289 290 291 296 296 294 299 302 300 299 300 300 300 301 301 299 294 293
253 252 248 246 244 242 241 241 240 240 239 238 238 238 238 237 236 234 232 231 230 228 228 227 227 227 228 229 231 235 239 243 247 250 252 256 259 261 266 270 275 281 285 290 294 295 295 295 296 298 301 302 302 301 302 304 307 307 306 305 303 301 300 297 294 290 288 287 286 286 292 293 290 293 299 298 294 294 298 297 294 297 298 295 293
253 251 249 248 248 245 242 240 239 239 237 237 237 238 238 237 235 233 231 230 229 227 226 226 226 227 227 228 230 234 239 242 245 248 251 256 259 261 266 271 276 282 285 290 294 294 295 296 298 301 303 305 305 305 305 302 296 293 294 295 295 296 295 293 290 288 286 286 285 285 288 289 289 289 292 294 290 291 297 297 291 293 296 294 293
253 251 251 251 249 244 241 239 239 238 236 236 237 236 236 235 234 232 230 228 227 226 224 224 224 226 226 228 231 234 238 241 243 247 251 255 258 261 268 273 277 282 287 291 293 294 296 298 302 305 307 307 306 306 305 297 286 283 285 287 289 289 290 289 286 285 285 284 285 286 285 286 288 288 288 291 291 291 295 295 291 293 296 294 293
253 252 252 250 245 242 240 239 238 237 236 235 235 235 235 234 233 230 228 227 225 224 223 223 223 224 226 228 232 235 237 239 242 246 250 254 259 264 269 274 279 284 289 293 295 298 300 302 306 308 307 306 306 305 305 302 297 290 284 284 285 284 283 284 284 283 283 283 284 285 284 284 287 288 286 287 288 287 290 290 289 292 294 292 291
254 252 250 247 243 241 240 238 237 237 236 235 234 234 234 233 231 229 227 225 224 223 222 223 223 224 226 228 232 234 237 239 242 246 251 256 262 267 271 278 284 289 292 296 299 300 301 304 306 305 304 304 306 309 309 308 306 299 290 287 286 283 281 281 282 283 283 284 285 284 284 284 285 286 286 285 284 285 286 284 283 286 288 288 286
253 251 248 245 243 242 240 238 238 237 236 235 234 234 233 232 230 228 226 225 224 223 222 222 223 224 226 229 232 233 235 238 242 246 251 257 263 269 276 284 288 291 294 296 298 299 301 303 302 301 302 304 309 315 315 313 313 311 305 302 299 295 291 284 281 280 280 282 284 283 284 285 284 285 287 285 284 285 283 282 281 281 281 282 281
251 249 247 244 243 242 240 239 238 237 236 235 234 233 232 231 230 228 226 224 223 222 221 221 221 223 225 228 230 231 233 237 241 245 249 255 262 269 277 284 286 288 290 292 296 298 299 300 299 301 304 309 315 321 319 315 313 311 307 304 300 298 296 292 287 284 283 282 282 283 286 287 285 286 289 287 284 284 282 281 282 280 278 281 283
250 248 245 244 243 241 240 238 237 236 235 234 233 232 231 230 228 226 224 223 222 222 221 220 220 221 224 226 226 228 232 236 240 244 248 255 261 268 275 280 281 283 287 291 294 295 295 296 298 303 309 316 320 319 314 309 305 301 298 297 298 299 298 296 294 291 289 288 286 286 288 289 288 289 290 288 286 286 285 282 282 281 279 280 282
247 245 244 244 243 242 240 238 236 235 234 232 232 231 230 229 227 225 223 221 221 220 219 219 219 220 222 223 224 226 230 235 239 244 250 255 260 266 270 273 276 280 285 289 289 291 292 294 300 309 316 318 315 308 301 299 298 298 301 302 303 302 299 297 295 291 289 288 287 286 287 287 288 289 288 287 286 287 287 284 282 280 277 276 277
245 245 245 245 243 241 240 238 236 234 232 232 231 230 228 227 226 224 221 219 218 217 216 216 217 219 220 220 221 224 229 234 239 246 251 255 259 264 266 269 274 280 283 285 287 287 289 296 307 314 312 308 305 302 299 300 302 304 305 304 302 299 299 300 299 296 296 294 291 289 287 286 286 286 286 285 284 284 284 281 279 279 278 276 276
244 244 244 243 242 240 238 237 235 234 233 232 231 229 227 226 224 222 221 219 217 215 214 215 216 217 217 217 218 223 228 234 239 245 250 254 257 261 264 267 273 278 281 283 284 285 290 302 311 309 303 300 303 306 306 304 304 303 302 301 301 301 303 307 308 309 310 306 297 292 290 290 291 290 290 287 284 282 278 275 276 277 277 276 276
242 241 240 241 240 238 237 236 235 235 234 233 231 229 227 225 223 221 220 218 216 214 213 214 214 214 213 213 214 220 227 233 238 243 249 252 255 258 262 267 272 276 278 279 282 289 297 305 309 304 300 301 306 310 308 304 303 302 302 302 301 303 309 314 315 314 310 303 298 298 298 299 300 299 297 295 292 286 278 274 276 276 274 273 273
241 240 238 238 238 238 238 237 237 236 235 234 231 229 227 225 222 220 218 216 214 212 212 212 213 212 211 210 213 219 225 231 235 241 245 248 252 257 260 265 270 272 274 278 285 293 298 302 305 303 302 306 312 310 306 305 305 304 303 302 303 307 314 315 311 306 301 300 302 305 306 306 306 306 306 303 300 295 287 282 280 277 273 272 271
241 240 238 238 238 238 239 239 238 237 235 232 230 227 226 225 222 220 217 213 211 210 211 210 210 209 209 210 213 217 222 228 233 237 241 244 248 253 258 263 266 269 274 280 286 292 297 301 303 304 309 314 314 309 308 310 309 306 305 306 308 311 311 306 303 303 304 306 309 310 311 312 312 311 309 305 301 298 294 290 288 283 278 273 271
242 241 240 240 240 240 240 239 237 235 232 230 228 225 224 223 222 220 217 213 210 210 209 208 207 207 207 209 212 214 218 224 229 232 236 240 243 247 253 258 261 265 272 277 282 289 297 300 303 309 315 313 311 311 313 313 311 308 310 312 311 309 306 303 305 308 310 312 315 317 318 318 316 312 308 305 304 301 297 294 292 290 286 280 275
250 245 243 243 243 241 240 238 236 233 231 228 226 224 222 221 220 218 216 213 211 209 208 207 206 205 206 207 209 212 216 221 225 228 231 235 237 240 245 250 253 257 263 271 281 290 296 300 306 312 313 310 313 316 315 313 312 312 314 314 312 310 309 308 311 313 316 318 321 323 323 320 316 310 305 305 305 302 299 297 293 290 287 283 279
259 251 248 247 245 242 240 238 236 233 230 226 223 222 221 219 217 215 213 212 211 210 208 207 206 205 206 207 208 211 214 218 222 224 227 229 229 232 237 241 244 251 260 271 283 292 297 302 306 309 311 314 317 316 313 314 316 316 317 316 315 314 315 316 319 322 323 325 325 324 323 320 315 308 305 305 305 303 303 302 299 296 292 286 281
265 256 252 250 247 243 240 237 235 233 229 226 223 220 218 217 215 213 210 210 210 210 209 208 207 207 208 208 209 211 213 215 218 219 221 223 223 226 231 236 240 248 259 271 282 291 298 303 307 311 315 318 316 313 314 319 321 321 322 320 319 321 324 326 329 330 328 326 324 322 320 318 313 307 307 308 307 306 307 306 304 305 303 297 291
270 262 259 254 248 244 240 236 234 232 228 226 224 221 219 216 214 211 209 208 209 210 210 209 208 209 210 209 209 210 211 213 215 216 215 216 219 223 227 232 238 247 259 271 282 291 301 309 313 316 316 314 313 315 319 324 326 327 327 326 327 329 333 336 336 333 328 325 323 320 318 317 316 314 314 314 312 311 311 309 308 307 305 302 298
273 269 266 258 250 246 241 237 234 231 227 224 221 219 217 216 213 211 209 207 207 208 209 209 209 209 210 209 208 209 210 211 211 212 212 212 215 219 224 228 235 247 262 274 285 298 309 314 315 313 311 309 311 316 321 326 330 332 332 333 334 335 338 340 339 334 330 327 324 321 320 320 319 319 319 318 316 314 312 310 308 307 305 302 297
270 267 265 259 253 248 243 238 235 231 227 223 219 217 214 213 213 213 211 209 207 206 206 208 211 212 213 211 209 208 207 208 209 209 209 210 213 217 220 227 237 251 267 280 294 309 312 312 309 306 305 307 312 318 324 328 332 335 337 338 338 338 340 342 341 339 335 330 326 323 322 322 321 321 320 319 317 315 314 311 309 307 305 301 295
266 262 258 254 251 247 242 238 235 232 227 222 218 216 214 212 212 211 211 211 211 210 209 210 212 214 215 216 216 213 210 207 206 206 207 209 213 217 219 229 245 256 268 284 299 307 306 304 304 303 306 313 320 326 330 333 337 340 342 342 341 341 344 346 345 344 339 333 328 326 324 323 322 322 322 320 318 316 314 312 310 308 305 300 293
263 258 253 249 247 244 240 236 232 229 225 221 216 213 211 211 210 210 208 208 210 212 214 216 217 215 214 215 216 217 215 209 202 201 204 204 207 213 217 227 248 260 274 287 295 299 300 301 304 308 316 324 329 334 337 340 343 344 344 345 345 345 346 348 348 344 340 334 330 328 326 324 323 323 323 321 319 317 315 313 312 309 304 299 293
260 256 252 249 246 242 238 234 230 225 222 219 214 209 204 203 204 206 207 207 208 209 211 213 214 213 211 209 206 204 204 203 199 199 201 200 199 203 208 219 238 257 276 284 288 294 297 298 305 317 327 333 337 342 345 346 346 346 344 344 347 348 348 349 348 345 340 335 332 330 329 327 324 323 324 323 320 318 316 315 313 310 305 299 294
260 257 253 249 245 240 236 232 227 222 217 214 210 206 201 196 194 197 201 204 204 203 202 202 203 203 203 204 204 200 196 195 196 197 197 195 194 195 201 218 236 255 272 278 283 289 293 300 315 328 335 339 343 347 349 349 348 347 345 343 344 347 348 349 348 345 341 337 333 332 331 329 326 325 326 325 322 319 317 316 314 311 306 300 294
261 258 254 249 244 239 234 230 225 219 215 211 206 202 198 195 191 188 189 192 195 195 194 195 196 194 193 195 199 198 194 192 194 195 192 190 190 191 200 218 236 251 265 271 276 282 292 310 326 336 341 345 348 350 352 352 350 347 345 343 343 345 347 349 349 345 341 338 334 332 331 330 328 327 327 326 323 320 318 317 315 311 308 303 297
261 257 253 249 245 240 235 230 224 218 214 210 204 199 196 194 190 184 178 176 178 180 183 186 188 189 189 189 189 190 189 189 191 192 190 188 188 191 201 214 227 242 256 264 268 280 303 324 334 340 344 347 348 350 352 353 351 349 346 343 342 344 347 350 350 346 342 338 335 334 333 332 330 329 328 327 325 321 319 318 316 312 308 304 300
257 252 249 247 244 240 236 231 225 219 214 208 202 197 194 192 189 184 178 174 172 171 172 175 180 184 185 183 180 181 183 186 190 192 190 189 188 191 199 208 217 235 247 256 269 293 324 338 341 344 346 347 348 349 350 351 351 349 347 343 342 345 349 351 350 346 341 338 336 335 335 334 332 331 330 328 326 323 320 318 316 312 309 307 303
252 248 246 244 241 238 236 231 225 219 213 206 199 195 192 189 186 183 179 177 176 175 174 172 172 174 175 174 175 178 181 187 194 194 189 187 187 189 195 202 213 230 239 251 284 327 344 346 347 348 348 349 350 349 349 350 350 348 346 344 343 346 351 352 350 345 340 339 338 338 337 335 333 332 332 330 327 324 321 319 317 314 311 309 304
251 247 244 242 239 235 231 227 221 215 209 202 195 191 189 186 184 181 179 178 178 177 175 173 172 172 171 170 170 176 183 190 195 193 186 184 186 187 188 194 208 220 229 246 316 344 348 349 350 350 351 352 352 350 349 350 349 346 345 343 344 348 352 353 349 345 341 340 340 339 337 335 334 334 333 331 328 325 322 320 319 316 312 310 305
250 246 244 240 235 230 225 220 214 208 203 197 192 189 186 184 182 180 179 180 180 178 177 178 179 178 176 173 174 180 187 192 192 188 184 185 187 185 185 193 204 213 221 253 335 345 350 351 351 352 353 353 352 351 350 350 349 346 343 342 343 348 353 354 351 347 343 341 340 339 338 335 335 335 334 332 329 326 324 322 320 317 315 312 309
243 241 239 235 230 225 219 213 206 201 196 192 188 186 184 182 180 180 180 180 181 181 181 182 182 182 181 181 183 186 189 189 187 186 186 187 185 183 187 196 202 203 210 298 347 350 352 351 350 351 354 353 352 351 350 350 349 346 342 342 343 348 354 356 352 347 345 343 341 340 338 336 336 335 334 333 330 328 326 324 322 320 317 314 312
241 237 234 230 224 219 213 207 201 195 191 188 185 183 182 181 180 181 182 182 181 182 183 183 183 183 184 187 187 187 187 186 186 188 187 184 181 184 191 197 197 193 204 334 351 352 351 351 350 351 352 352 351 351 350 350 349 345 342 342 344 348 355 356 351 347 345 344 342 340 338 337 337 336 335 334 332 329 327 325 323 322 319 316 315
238 233 228 223 218 212 206 200 196 192 188 185 183 181 181 181 181 183 183 182 181 182 181 181 182 181 182 184 185 186 188 188 188 188 186 182 184 190 193 193 190 185 226 332 345 348 348 349 349 349 350 351 350 350 350 349 349 346 343 342 344 349 355 356 352 348 346 344 342 340 338 337 338 337 336 334 333 331 329 327 325 324 322 320 320
235 228 222 215 209 205 199 193 190 188 185 183 182 182 182 183 184 184 182 180 180 180 179 179 180 179 179 182 185 186 187 188 187 187 186 186 190 193 192 190 192 199 283 329 340 344 346 348 348 348 348 349 349 349 349 348 349 347 344 342 344 350 356 356 352 349 347 345 342 340 338 339 340 339 337 336 334 333 331 330 328 327 325 324 324
229 222 215 207 201 198 193 189 185 183 182 182 182 183 185 185 184 182 181 179 180 180 179 178 177 177 179 183 186 185 185 186 187 188 188 189 191 192 191 194 206 252 312 330 339 342 346 348 348 348 348 348 349 349 349 348 348 348 345 342 343 350 356 357 353 350 347 345 342 340 339 340 342 341 339 338 336 335 334 332 331 330 328 326 328
217 210 203 197 193 190 187 185 182 181 181 181 182 183 184 184 182 181 180 179 178 179 179 177 178 179 182 184 184 182 183 186 187 187 187 188 189 190 193 201 222 282 317 331 339 342 345 346 346 347 349 349 348 349 348 348 348 348 345 342 343 349 357 358 355 350 347 344 341 339 340 342 343 342 340 340 338 337 336 335 333 332 332 332 333
206 199 193 188 185 183 181 180 179 179 179 180 181 181 181 180 179 179 179 177 177 177 178 179 180 182 183 182 181 182 184 186 186 185 185 186 189 192 197 207 233 289 318 333 339 340 341 342 344 347 348 348 348 349 348 347 349 349 346 342 343 349 357 359 355 350 347 343 341 340 341 343 344 343 342 341 341 339 338 337 336 334 334 335 336
195 191 186 181 178 177 176 176 177 179 179 180 179 178 177 177 177 176 175 175 175 176 177 179 181 181 181 180 181 183 184 185 184 184 185 188 192 197 203 214 247 294 319 332 336 336 338 341 343 345 347 347 347 348 348 347 348 348 346 344 344 349 357 360 355 349 346 344 341 341 343 344 345 344 344 343 343 341 340 339 339 337 337 338 338
186 183 180 177 175 174 174 176 178 179 178 177 176 175 173 173 173 172 172 174 175 176 177 179 180 180 181 181 182 183 183 183 183 184 187 190 196 203 209 224 263 301 318 327 331 334 337 341 343 344 345 345 345 346 348 348 347 347 347 345 344 349 358 360 354 348 346 344 342 343 345 346 346 346 346 345 344 343 342 342 341 340 341 342 343
180 177 175 175 174 174 174 176 177 177 176 174 172 171 169 168 169 170 171 173 176 177 178 180 181 181 181 181 182 182 182 182 183 186 189 194 201 208 216 236 271 298 312 320 328 334 337 340 342 342 342 343 344 345 347 347 346 347 348 345 343 350 359 358 352 348 346 344 344 346 349 349 348 348 348 347 346 346 345 344 343 343 344 344 345
175 174 173 173 174 174 174 175 175 175 173 170 168 166 165 166 168 170 172 174 176 178 179 180 181 181 181 181 182 182 182 183 185 189 192 196 204 212 224 249 274 293 307 316 327 334 337 340 342 341 342 343 343 344 346 347 346 348 348 344 344 352 358 355 349 347 346 345 347 351 351 351 351 351 351 350 349 348 348 347 346 346 346 345 346
171 172 171 171 171 171 172 173 173 171 169 167 165 164 164 166 168 170 172 175 176 177 178 179 180 180 181 182 182 182 183 185 187 191 195 200 207 217 234 258 280 296 308 318 328 335 338 340 341 340 341 342 342 343 345 346 346 348 347 344 345 353 357 352 347 347 347 348 352 354 354 353 353 354 353 353 352 351 351 351 350 349 348 347 346
168 168 168 168 168 168 167 168 167 166 164 164 164 164 164 166 169 171 172 175 176 176 177 178 179 180 181 182 182 183 185 188 190 195 199 204 211 225 243 266 285 298 310 319 329 334 337 339 340 340 340 341 341 342 344 345 346 348 347 344 346 354 356 350 346 346 349 352 356 357 356 355 355 356 355 356 355 354 354 353 353 352 351 349 348